TimePDT,TemperatureF,Dew PointF,Humidity,Sea Level PressureIn,VisibilityMPH,Wind Direction,Wind SpeedMPH,Gust SpeedMPH,PrecipitationIn,Events,Conditions,WindDirDegrees,DateUTC
12:53 AM,73.0,55.9,55,29.83,10.0,NNW,17.3,-,N/A,,Clear,330,2013-07-21 07:53:00
1:53 AM,70.0,55.9,61,29.83,10.0,NW,17.3,-,N/A,,Clear,320,2013-07-21 08:53:00
2:53 AM,69.1,55.9,63,29.83,10.0,NNW,21.9,-,N/A,,Clear,330,2013-07-21 09:53:00
3:53 AM,66.9,55.0,66,29.83,10.0,NW,10.4,-,N/A,,Clear,320,2013-07-21 10:53:00
4:53 AM,64.9,53.1,65,29.83,10.0,NNW,13.8,-,N/A,,Clear,330,2013-07-21 11:53:00
5:53 AM,59.0,48.9,69,29.84,10.0,Calm,Calm,-,N/A,,Clear,0,2013-07-21 12:53:00
6:53 AM,64.9,54.0,68,29.84,10.0,WNW,18.4,25.3,N/A,,Clear,300,2013-07-21 13:53:00
7:53 AM,66.9,54.0,63,29.84,10.0,NW,13.8,20.7,N/A,,Clear,310,2013-07-21 14:53:00
8:53 AM,72.0,53.1,51,29.84,10.0,NW,16.1,23.0,N/A,,Clear,320,2013-07-21 15:53:00
9:53 AM,75.0,52.0,44,29.83,10.0,NW,20.7,27.6,N/A,,Clear,320,2013-07-21 16:53:00
10:53 AM,79.0,52.0,39,29.81,10.0,NW,19.6,29.9,N/A,,Clear,320,2013-07-21 17:53:00
11:53 AM,82.9,50.0,32,29.79,10.0,NNW,24.2,31.1,N/A,,Clear,330,2013-07-21 18:53:00
12:53 PM,86.0,51.1,30,29.78,10.0,NNW,23.0,31.1,N/A,,Clear,330,2013-07-21 19:53:00
1:53 PM,87.1,52.0,30,29.78,10.0,NNW,23.0,33.4,N/A,,Clear,330,2013-07-21 20:53:00
2:53 PM,90.0,52.0,27,29.75,10.0,NNW,24.2,31.1,N/A,,Clear,340,2013-07-21 21:53:00
3:53 PM,90.0,53.1,28,29.74,10.0,NNW,16.1,26.5,N/A,,Clear,330,2013-07-21 22:53:00
4:53 PM,95.0,50.0,22,29.73,10.0,WNW,21.9,28.8,N/A,,Clear,300,2013-07-21 23:53:00
5:53 PM,89.1,53.1,29,29.73,10.0,NNW,21.9,28.8,N/A,,Clear,330,2013-07-22 00:53:00
6:53 PM,87.1,53.1,31,29.74,10.0,NW,19.6,26.5,N/A,,Clear,310,2013-07-22 01:53:00
7:53 PM,82.0,54.0,38,29.75,10.0,NW,12.7,-,N/A,,Clear,320,2013-07-22 02:53:00
8:53 PM,78.1,53.1,42,29.77,10.0,NNW,11.5,-,N/A,,Clear,340,2013-07-22 03:53:00
9:53 PM,78.1,51.1,39,29.80,10.0,WNW,12.7,21.9,N/A,,Clear,290,2013-07-22 04:53:00
10:53 PM,75.9,52.0,43,29.79,10.0,NW,13.8,20.7,N/A,,Clear,320,2013-07-22 05:53:00
11:53 PM,77.0,51.1,40,29.81,10.0,NW,12.7,26.5,N/A,,Clear,320,2013-07-22 06:53:00